AirNav   Everest Fuels
 
 1175 users online  

60IS Nelson Private Airport
Browns, Illinois, USA

GOING TO BROWNS?


FAA INFORMATION EFFECTIVE 10 SEPTEMBER 2020

Location

FAA Identifier: 60IS
Lat/Long: 38-24-02.1750N 087-59-19.1190W
38-24.036250N 087-59.318650W
38.4006042,-87.9886442
(estimated)
Elevation: 420 ft. / 128 m (estimated)
Variation: 00E (1985)
From city: 1 mile N of BROWNS, IL
Time zone: UTC -5 (UTC -6 during Standard Time)
Zip code: 62815

Airport Operations

Airport use: Private use. Permission required prior to landing
Activation date: 03/1988
Control tower: no
ARTCC: INDIANAPOLIS CENTER
FSS: COLUMBIA FLIGHT SERVICE STATION
Attendance: CONTINUOUS
Wind indicator: yes
Segmented circle: no

Airport Communications

WX AWOS-3 at AJG (17 nm NE): 134.900 (618-948-2184)
WX AWOS-3 at CUL (20 nm S): 118.425 (618-382-3760)
WX AWOS-3 at FWC (20 nm W): 119.425 (618-847-4709)

Nearby radio navigation aids

VOR radial/distance  VOR name  Freq  Var
SAMr135/6.8SAMSVILLE VOR/DME116.6003E
PXVr336/30.3POCKET CITY VORTAC113.3003E
BIBr140/38.8BIBLE GROVE VORTAC109.0003E

 
NDB name  Hdg/Dist  Freq  Var  ID
WAYNE COUNTY087/19.825701WFWC ..-. .-- -.-.
OLNEY159/20.927203WOLY --- .-.. -.--

Airport Services

Runway Information

Runway 16/34

Dimensions: 4000 x 100 ft. / 1219 x 30 m
Surface: turf
RUNWAY 16  RUNWAY 34
Traffic pattern: leftleft
Obstructions: 15 ft. road8 ft. crops

Airport Ownership and Management from official FAA records

Ownership: Privately-owned
Owner: DWIGHT NELSON
889 COUNTY ROAD 1000 NORTH
BROWNS, IL 62818
Phone 618-446-5150
Manager: DWIGHT NELSON
889 COUNTY ROAD 1000 NORTH
BROWNS, IL 62818
Phone 618-446-5150

Airport Operational Statistics

Aircraft based on the field: 1
Single engine airplanes: 1
    

Additional Remarks

FOR CD CTC EVANSVILLE APCH AT 812-436-4690, WHEN APCH CLSD CTC INDIANAPOLIS ARTCC AT 317-247-2411.

Instrument Procedures

There are no published instrument procedures at 60IS.

Some nearby airports with instrument procedures:

KAJG - Mount Carmel Municipal Airport (17 nm NE)
KCUL - Carmi Municipal Airport (20 nm S)
KFWC - Fairfield Municipal Airport (20 nm W)
KOLY - Olney-Noble Airport (21 nm NW)
KFOA - Flora Municipal Airport (27 nm NW)
 
Loc | Ops | Rwys | IFR | FBO | Links
Com | Nav | Svcs | Stats | Notes
Area around 60IS (Nelson Private Airport)
 
Road maps at: MapQuest Bing Google
 
Aerial photo
No photo
 
Sectional chart

 
Airport distance calculator
Flying to Nelson Private Airport? Find the distance to fly.

From to 60IS

Sunrise and sunset
Times for 30-Sep-2020
 Local
(UTC-5)
 Zulu
(UTC)
Morning civil twilight06:2211:22
Sunrise06:4911:49
Sunset18:3523:35
Evening civil twilight19:0100:01

Current date and time
Zulu (UTC)  01-Oct-2020 00:50:57
Local (UTC-5)  30-Sep-2020 19:50:57
 
METAR
KAJG 
17nm NE 
010035Z AUTO 35009KT 10SM CLR 18/01 A2993 RMK AO2 T01820014
KCUL 
20nm S 
010035Z AUTO 33010G14KT 10SM OVC090 21/05 A2992 RMK AO2
KFWC 
20nm W 
010035Z AUTO 33003KT 10SM CLR 19/02 A2993 RMK AO1 T01910021
KOLY 
21nm NW 
010035Z AUTO 32007KT 10SM CLR 17/02 A2994 RMK AO2 T01700023
KFOA 
27nm NW 
010035Z AUTO 33006KT 10SM CLR 17/04 A2994 RMK AO2
KLWV 
29nm NE 
302353Z AUTO 33012KT 10SM CLR 21/02 A2989 RMK AO2 SLP122 T02060017 10294 20206 53046
KEVV 
31nm SE 
302354Z 31005KT 10SM OVC075 23/08 A2988 RMK AO2 SLP117 T02280078 10272 20228 53040
TAF
KEVV 
31nm SE 
301737Z 3018/0118 23013G24KT P6SM FEW200 FM302300 29010KT P6SM SCT200 FM011500 28010G18KT P6SM SCT180
NOTAMs
Click for the latest NOTAMs
NOTAMs are issued by the DoD/FAA and will open in a separate window not controlled by AirNav.

 

 
 

Would you like to see your business listed on this page?

 If your business provides an interesting product or service to pilots, flight crews, aircraft, or users of the Nelson Private Airport, you should consider listing it here.  To start the listing process, click on the button below
 
Add a business
 

Other Pages about Nelson Private Airport

Update a link
 
Copyright © AirNav, LLC. All rights reserved. Privacy Policy  Contact